Regional Weather Roundup
Issued by NWS

Home | Current Version | Previous Version | Text Only | Print | Product List | Glossary On
Versions: 1 2 3 4 5 6 7 8 9 10 11 12 13 14 15 16 17 18 19 20 21 22 23 24 25 26 27 28 29 30 31 32 33 34 35 36 37 38 39 40 41 42 43 44 45 46 47 48 49 50
000
ASUS43 KLMK 220810
RWRKY
KENTUCKY REGIONAL WEATHER ROUNDUP
NATIONAL WEATHER SERVICE LOUISVILLE KY
300 AM EST SUN JAN 22 2017

NOTE "FAIR" INDICATES FEW OR NO CLOUDS BELOW 12,000 FEET
WITH NO SIGNIFICANT WEATHER AND/OR OBSTRUCTIONS TO VISIBILITY.

KYZ001>023-026-027-061>063-070>075-220900-
WESTERN AND SOUTH CENTRAL KENTUCKY

CITY           SKY/WX    TMP DP  RH WIND       PRES   REMARKS
PADUCAH        CLOUDY    51  47  86 CALM      29.47R
HENDERSON      PTCLDY    52  45  76 E5        29.50R
OWENSBORO      PTCLDY    53  48  83 E6        29.52R
HOPKINSVILLE   CLOUDY    53  50  91 E3        29.50S
BOWLING GREEN  CLEAR     51  47  86 E3        29.53S
GLASGOW        CLOUDY    52  47  83 E6        29.53F
$$

KYZ024-025-028>034-038-045-046-053-220900-
NORTH CENTRAL KENTUCKY

CITY           SKY/WX    TMP DP  RH WIND       PRES   REMARKS
LOUISVILLE/SDF CLEAR     50  45  83 E3        29.55F
LOUISVILLE/LOU CLEAR     47  44  90 CALM      29.55F
FORT KNOX      CLEAR     49  46  90 E6        29.53R
$$

KYZ035>037-039>044-047>052-055>060-089>105-220900-
NORTHEAST KENTUCKY

CITY           SKY/WX    TMP DP  RH WIND       PRES   REMARKS
LEXINGTON      CLEAR     49  46  90 SE8       29.57F
COVINGTON      CLEAR     49  48  97 E8        29.58F
FRANKFORT      FOG       44  42  93 CALM      29.56R VSB 1/2
$$

KYZ054-064>069-076>088-106>120-220900-
SOUTHEAST KENTUCKY

CITY           SKY/WX    TMP DP  RH WIND       PRES   REMARKS
JACKSON        CLOUDY    52  49  89 SE3       29.60F
LONDON         FOG       44  42  93 CALM      29.57F VSB 1/4
SOMERSET       CLEAR     45  45 100 CALM      29.58F
MIDDLESBORO    FOG       43  43 100 CALM      29.62F VSB<1/4
MONTICELLO     MOSUNNY   44  43  96 W9        29.57F
$$





USA.gov is the U.S. government's official web portal to all federal, state and local government web resources and services.